Home   Weather   Thule Air Base   Past weeks

Flag for Greenland Past Weather in Thule Air Base, Greenland — Yesterday and Last 2 Weeks

Now
-17 °F

Clear.


Feels Like: -27 °F
Forecast: -21 / -18 °F
Wind: 3 mph from East

Location: Thule A. B.

Current Time: Jan 24, 2017 at 7:18:22 am

Latest Report: Jan 24, 2017 at 5:58 am


Visibility: N/A

Pressure: 29.38 "Hg

Humidity: 83%

Dew Point: -20 °F

Location of Thule Air BaseLocation

Past Weather in Thule Air Base — Graph

°F

Thule Air Base Temperature Yesterday

Maximum temperature yesterday: -4 °F (at 12:19 am)
Minimum temperature yesterday: -18 °F (at 7:58 pm)
Average temperature yesterday: -9 °F

High & Low Weather Summary for the Past Weeks

 TemperatureHumidityPressure
High0 °F (Jan 13, 6:58 am)84% (Jan 22, 9:09 pm)30.21 "Hg (Jan 22, 9:09 pm)
Low-24 °F (Jan 9, 2:58 pm)41% (Jan 13, 4:58 am)28.75 "Hg (Jan 15, 2:58 pm)
Average-13 °F70%29.56 "Hg
* Reported Jan 9 5:58 am — Jan 24 5:58 am, Thule Air Base, Weather by CustomWeather, © 2017

Note: Actual official high and low records may vary slightly from our data, if they occured in-between our weather recording intervals... More about our weather records

Advertising

Thule Air Base Weather History for the Previous 24 Hours

Scroll right to see more
 ConditionsComfort  
Time TempWeatherWind HumidityBarometerVisibility
5:58 am
Tue, Jan 24
-17 °FClear.3 mph83%29.38 "HgN/A
4:58 am-15 °FClear.5 mph76%29.38 "HgN/A
3:58 am-15 °FClear.7 mph76%29.38 "HgN/A
2:58 am-15 °FClear.10 mph76%29.38 "HgN/A
1:58 am-20 °FSunny.7 mph83%29.39 "HgN/A
12:58 am-17 °FClear.7 mph76%29.40 "HgN/A
11:58 pm
Mon, Jan 23
-18 °FClear.6 mph75%29.40 "HgN/A
10:58 pm-17 °FClear.6 mph76%29.42 "HgN/A
9:58 pm-18 °FClear.6 mph83%29.44 "HgN/A
8:58 pm-18 °FClear.10 mph75%29.45 "HgN/A
7:58 pm-18 °FSunny.10 mph83%29.48 "HgN/A
6:58 pm-17 °FSunny.No wind76%29.49 "HgN/A
5:58 pm-15 °FSunny.8 mph76%29.51 "HgN/A
4:58 pm-15 °FSunny.9 mph76%29.53 "HgN/A
3:58 pm-16 °FSunny.7 mph79%29.54 "HgN/A
2:58 pm-15 °FSunny.8 mph76%29.55 "HgN/A
1:58 pm-13 °FSunny.8 mph83%29.56 "HgN/A
1:13 pm-13 °FSunny.8 mph83%29.60 "Hg3 mi
12:58 pm-13 °FSunny.8 mph76%29.58 "HgN/A
11:58 am-11 °FPassing clouds.6 mph84%29.59 "HgN/A
11:28 am-9 °FLow clouds.6 mph84%29.63 "Hg5 mi
10:58 am-8 °FOvercast.No wind84%29.60 "Hg5 mi
9:58 am-6 °FOvercast.5 mph81%29.60 "Hg5 mi
9:08 am-6 °FOvercast.5 mph77%29.64 "Hg5 mi
8:58 am-6 °FOvercast.6 mph77%29.61 "Hg6 mi
8:32 am-6 °FOvercast.5 mph84%29.64 "Hg6 mi
8:18 am-6 °FOvercast.No wind84%29.64 "Hg5 mi
7:58 am-6 °FLow clouds.3 mph77%29.61 "HgN/A
7:18 am-6 °FLow clouds.No wind77%29.64 "Hg5 mi
Weather by CustomWeather, © 2017

See weather overviewHow to use our weather pages